Exeter, United Kingdom

11:44 PM GMT on February 08, 2016 (GMT +0000)
Exeter

Weather History for EGTE - December, 2013

Change the Weather History Date:

Monday, December 23, 2013

  Actual Average Record
Temperature  
Mean Temperature 48 °F -  
Max Temperature 55 °F 46 °F 57 °F (1997)
Min Temperature 40 °F 36 °F 21 °F (2001)
Degree Days  
Heating Degree Days 18    
Moisture  
Dew Point 49 °F    
Average Humidity 90    
Maximum Humidity 100    
Minimum Humidity 74    
Precipitation  
Precipitation 0.75 in - - ()
Sea Level Pressure  
Sea Level Pressure 29.16 in    
Wind  
Wind Speed 25 mph ()    
Max Wind Speed 44 mph    
Max Gust Speed 61 mph    
Visibility 4.8 miles    
Events Rain    
Averages and records for this station are not official NWS values.
T = Trace of Precipitation, MM = Missing Value Source: Averaged Metar Reports

Daily Weather History Graph

Daily Weather History Graph

Search for Another Location

Airport or City:

Trip Planner

Search our weather history database for the weather conditions in past years. The results will help you decide how hot, cold, wet, or windy it might be!

Date:

Astronomy

Dec. 23, 2013 Rise Set
Actual Time 8:14 AM GMT 4:11 PM GMT
Civil Twilight 7:34 AM GMT 4:51 PM GMT
Nautical Twilight 6:52 AM GMT 5:33 PM GMT
Astronomical Twilight 6:12 AM GMT 6:13 PM GMT
Moon 10:44 PM GMT (12/23) 10:58 AM GMT (12/23)
Length of Visible Light 9h 16m
Length of Day
7h 57m
Waning Gibbous, 70% of the Moon is Illuminated
Dec 23
Waning Gibbous
Dec 25
Last Quarter
Jan 1
New
Jan 8
First Quarter
Jan 16
Full

Hourly Weather History & Observations

Time (GMT) Temp. Dew Point Humidity Pressure Visibility Wind Dir Wind Speed Gust Speed Precip Events Conditions
12:00 AM 44 °F 38 °F 74%  in - Calm Calm - -  
1:00 AM 43 °F 38 °F 77%  in - Calm Calm - -  
2:00 AM 44 °F 40 °F 80%  in - Calm Calm - -  
3:00 AM 45 °F 40 °F 78%  in - Calm Calm - -  
4:00 AM 46 °F 42 °F 80%  in - Calm Calm - -  
5:00 AM 48 °F 44 °F 83%  in - Calm Calm - -  
6:00 AM 50 °F 45 °F 78%  in - Calm Calm - -  
6:20 AM 50.0 °F 44.6 °F 82% 29.65 in 6.2 mi South 20.7 mph - N/A   Scattered Clouds
6:50 AM 50.0 °F 46.4 °F 87% 29.62 in 6.2 mi South 24.2 mph - N/A Rain Rain Showers
7:00 AM 50 °F 47 °F 85%  in - Calm Calm - -  
7:20 AM 50.0 °F 46.4 °F 87% 29.59 in 6.2 mi SSW 21.9 mph - N/A   Scattered Clouds
7:50 AM 50.0 °F 48.2 °F 94% 29.56 in 4.3 mi South 25.3 mph - N/A Rain Rain Showers
8:00 AM 51 °F 48 °F 84%  in - Calm Calm - -  
8:20 AM 50.0 °F 48.2 °F 94% 29.53 in 3.7 mi South 26.5 mph 42.6 mph N/A Rain Rain
8:50 AM 51.8 °F 48.2 °F 88% 29.50 in 3.1 mi South 28.8 mph 42.6 mph N/A Rain Rain
9:00 AM 51 °F 49 °F 88%  in - Calm Calm - -  
9:20 AM 51.8 °F 48.2 °F 88% 29.47 in 3.1 mi SSW 32.2 mph - N/A Rain Rain
9:50 AM 50.0 °F 48.2 °F 94% 29.44 in 2.8 mi South 29.9 mph 42.6 mph N/A Rain Rain
10:00 AM 51 °F 48 °F 87%  in - Calm Calm - -  
10:20 AM 51.8 °F 50.0 °F 94% 29.39 in 2.8 mi South 28.8 mph 43.7 mph N/A Rain Rain
10:50 AM 51.8 °F 50.0 °F 94% 29.36 in 2.8 mi South 29.9 mph 41.4 mph N/A Rain Rain
11:00 AM 52 °F 50 °F 89%  in - Calm Calm - -  
11:20 AM 51.8 °F 50.0 °F 94% 29.30 in 2.8 mi South 35.7 mph 52.9 mph N/A Rain Rain
11:50 AM 51.8 °F 50.0 °F 94% 29.27 in 2.5 mi SSW 38.0 mph 56.4 mph N/A Rain Rain
12:00 PM 53 °F 50 °F 86%  in - Calm Calm - -  
12:20 PM 51.8 °F 50.0 °F 94% 29.24 in 2.5 mi SSW 35.7 mph 49.5 mph N/A Rain Rain
12:50 PM 51.8 °F 50.0 °F 94% 29.21 in 2.5 mi SSW 36.8 mph 55.2 mph N/A Rain Rain
1:00 PM 53 °F 51 °F 89%  in - Calm Calm - -  
1:20 PM 51.8 °F 51.8 °F 100% 29.18 in 2.5 mi SSW 36.8 mph 54.1 mph N/A Rain Rain
1:50 PM 53.6 °F 51.8 °F 94% 29.15 in 2.5 mi SSW 31.1 mph 44.9 mph N/A Rain Rain
2:00 PM 54 °F 51 °F 87%  in - Calm Calm - -  
2:20 PM 53.6 °F 51.8 °F 94% 29.12 in 3.1 mi SSW 32.2 mph 48.3 mph N/A Rain Rain
2:50 PM 53.6 °F 51.8 °F 94% 29.12 in 3.1 mi SW 32.2 mph 47.2 mph N/A Rain Rain
3:00 PM 54 °F 52 °F 89%  in - Calm Calm - -  
3:20 PM 53.6 °F 51.8 °F 94% 29.12 in 6.2 mi SW 19.6 mph - N/A Rain Light Rain
3:50 PM 53.6 °F 51.8 °F 94% 29.12 in 6.2 mi SW 18.4 mph - N/A Rain Light Rain
4:00 PM 54 °F 51 °F 84%  in - Calm Calm - -  
4:20 PM 53.6 °F 51.8 °F 94% 29.09 in 6.2 mi SSW 18.4 mph - N/A Rain Light Rain
4:50 PM 53.6 °F 51.8 °F 94% 29.09 in 6.2 mi SW 23.0 mph - N/A Rain Light Rain
5:00 PM 55 °F 51 °F 84%  in - Calm Calm - -  
5:20 PM 53.6 °F 51.8 °F 94% 29.06 in 6.2 mi SSW 20.7 mph 32.2 mph N/A Rain Light Rain
5:50 PM 53.6 °F 51.8 °F 94% 29.06 in 6.2 mi SSW 20.7 mph - N/A   Scattered Clouds
6:00 PM 54 °F 51 °F 86%  in - Calm Calm - -  
6:20 PM 53.6 °F 51.8 °F 94% 29.03 in 6.2 mi SSW 19.6 mph - N/A Rain Light Rain
6:50 PM 53.6 °F 51.8 °F 94% 29.00 in 6.2 mi SSW 21.9 mph - N/A Rain Light Rain
7:00 PM 54 °F 51 °F 88%  in - Calm Calm - -  
7:50 PM 51.8 °F 50.0 °F 94% 28.94 in 6.2 mi SSW 19.6 mph - N/A Rain Rain
8:00 PM 53 °F 51 °F 89%  in - Calm Calm - -  
8:20 PM 53.6 °F 51.8 °F 94% 28.88 in 6.2 mi South 21.9 mph - N/A Rain Rain
8:50 PM 53.6 °F 51.8 °F 94% 28.82 in 6.2 mi SSW 28.8 mph 44.9 mph N/A   Mostly Cloudy
9:00 PM 54 °F 53 °F 93%  in - Calm Calm - -  
9:20 PM 53.6 °F 51.8 °F 94% 28.80 in 6.2 mi SSW 39.1 mph 61.0 mph N/A Rain Rain
9:50 PM 55.4 °F 53.6 °F 94% 28.77 in 6.2 mi SSW 40.3 mph 54.1 mph N/A Rain Rain
10:00 PM 55 °F 52 °F 88%  in - Calm Calm - -  
10:20 PM 53.6 °F 51.8 °F 94% 28.74 in 6.2 mi SSW 43.7 mph 61.0 mph N/A Rain Rain
10:50 PM 53.6 °F 51.8 °F 94% 28.74 in 6.2 mi SSW 35.7 mph 52.9 mph N/A Rain Light Rain
11:00 PM 54 °F 52 °F 90%  in - Calm Calm - -  
11:20 PM 53.6 °F 51.8 °F 94% 28.74 in 6.2 mi SW 26.5 mph 39.1 mph N/A Rain Light Rain
11:50 PM 53.6 °F 50.0 °F 88% 28.77 in 6.2 mi WSW 17.3 mph - N/A Rain Light Rain